COSMOS 1275 DEB, 12672

Orbit data source: Space-Track

COSMOS 1275 DEB, 12672 is space debris in LEO originally from a launch on Thu, 04 Jun 1981 UTC launched from the Plesetsk Missile And Space Complex (PKMTR). Debris objects in space refer to the collection of defunct objects orbiting the Earth. Examples of debris include non-operational satellites, rocket bodies, and fragments generated from explosions, collisions, or faulty payload assembly.

Loading next visibility...
Identifier
12672, 1981-053AC
Orbit
LEO
Country
Flag of CISCIS
Related business
Manufacturer
Unknown
Mission
Spacecraft
Bus & Motor
Unknown
Mass
Unknown
Launch date (UTC)
1981-06-04 (44 years ago)
Launch vehicle
Unknown
Launch site
Plesetsk Missile And Space Complex (PKMTR)
Object type
Payload
Rocket body
Debris
Shape & HBR
Unknown
Radar Cross Section
Medium (>0.1 m² and <1 m²)

Expand to show TLE details & history
Last TLE update: 8 hours ago

TLE from 8 hours ago
0 COSMOS 1275 DEB
1 12672U 81053AC  25242.86360161  .00000696  00000-0  61428-3 0  9996
2 12672  82.9434  28.5411 0025882   3.9400 113.9532 13.83701217218257
Epoch: 2025-08-30T20:43Z
TLE epoch observation values (Epoch: 2025-08-30T20:43:35.179Z)
Latitude
61.12802°
Longitude
-94.5521°
Altitude
968.977 km
Speed
7.369 km/s
True Right ascension
13h 02m 32s
True Declination
60° 59' 12"
Sunlit
Object was in daylight at epoch
Visualization orbit readout
Latitude
Unknown
Longitude
Unknown
Altitude
Unknown
Speed
Unknown
Apparent Right ascension
Unknown
Apparent Declination
Unknown
Sunlit
N/A
Visualization observer readout
Local Sidereal Time
20:16:07
Azimuth
Unknown
Elevation
Unknown
Doppler factor
Unknown
Orbital elements
Apogee altitude
966.886 km
Perigee altitude
928.964 km
Semi-major axis
7,326.062 km
Eccentricity
0.00259
Inclination
82.9434°
RAAN
28.5411°
Arg. of periapsis
3.94°
True anomaly
114.22389°
Mean anomaly
113.9532°
Eccentric anomaly
114.08858°
Mean motion
3.46128 °/min
Orbital period
104.01 mins
BSTAR
0.00061428
Loading maneuver chart data...
Computing Atmospheric mass density...
Loading historical data...
Loading historical data...
Loading historical data...
Loading historical data...
Loading historical data...
Loading historical data...
Loading historical data...

Documentation

Showing up to 5 results
|